Location: Izdebno
(52.6670°N, 16.2170°E)
Time: 02:36:59
(UTC+02:00)

SR - Pass Details

Date: 01 March 2024
Orbit: 577 x 862 km, 66.7° (Epoch: 22 April)

Event Time Altitude Azimuth Distance (km) Brightness Sun altitude
Rises 22:00:37 0° 319° (NW) 3,252 ? -37.7°
Reaches altitude 10° 22:03:07 10° 319° (NW) 2,275 ? -37.9°
Enters shadow 22:04:53 21° 318° (NW) 1,600 ? -38.1°
Maximum altitude 22:08:18 82° 233° (SW) 714 - -38.4°
Drops below altitude 10° 22:13:00 10° 146° (SE) 2,071 - -38.9°
Sets 22:15:11 0° 146° (SE) 2,938 - -39.1°
